Weather History for Hurlburt Field, FL

Change the Weather History Date:

Thursday, January 24, 2013

  Actual Average Record
Temperature  
Mean Temperature 56 °F -  
Max Temperature 69 °F 59 °F 73 °F (2002)
Min Temperature 43 °F 41 °F 17 °F (2003)
Degree Days  
Heating Degree Days 9    
Growing Degree Days 6 (Base 50)    
Moisture  
Dew Point 57 °F    
Average Humidity 91    
Maximum Humidity 100    
Minimum Humidity 73    
Precipitation  
Precipitation 0.00 in - - ()
Sea Level Pressure  
Sea Level Pressure 30.29 in    
Wind  
Wind Speed 6 mph (West)    
Max Wind Speed 15 mph    
Max Gust Speed 17 mph    
Visibility 10 miles    
Events      
Averages and records for this station are not official NWS values.
T = Trace of Precipitation, MM = Missing Value Source: NWS Daily Summary

Daily Weather History Graph

Daily Weather History Graph

Search for Another Location

Airport:

Trip Planner

Search our weather history database for the weather conditions in past years. The results will help you decide how hot, cold, wet, or windy it might be!

Date:

Astronomy

Jan. 24, 2013 Rise Set
Actual Time 6:41 AM CST 5:16 PM CST
Civil Twilight 6:16 AM CST 5:42 PM CST
Nautical Twilight 5:47 AM CST 6:11 PM CST
Astronomical Twilight 5:18 AM CST 6:39 PM CST
Moon 3:20 PM CST (1/24) 4:36 AM CST (1/24)
Length of Visible Light 11h 26m
Length of Day
10h 34m
Waxing Gibbous, 94% of the Moon is Illuminated
Jan 24
Waxing Gibbous
Jan 26
Full
Feb 3
Last Quarter
Feb 10
New
Feb 17
First Quarter

Hourly Weather History & Observations

Time (CST) Temp. Windchill Dew Point Humidity Pressure Visibility Wind Dir Wind Speed Gust Speed Precip Events Conditions
12:15 AM 44.6 °F - 44.6 °F 100% 30.31 in 10.0 mi Calm Calm - N/A   Light Drizzle
12:28 AM 48.2 °F - 48.2 °F 100% 30.31 in 10.0 mi WNW 3.5 mph - N/A   Clear
12:32 AM 48.2 °F - 48.2 °F 100% 30.30 in 10.0 mi West 4.6 mph - N/A   Light Drizzle
12:55 AM 55.6 °F - 55.6 °F 100% 30.30 in 10.0 mi West 4.6 mph - 0.00 in   Light Drizzle
1:14 AM 46.4 °F - 46.4 °F 100% 30.30 in 10.0 mi Calm Calm - N/A   Clear
1:55 AM 43.2 °F - 43.2 °F 100% 30.29 in 10.0 mi Calm Calm - 0.00 in   Clear
2:13 AM 44.6 °F 43.1 °F 44.6 °F 100% 30.29 in 10.0 mi Variable 3.5 mph - N/A   Light Drizzle
2:55 AM 44.2 °F 42.7 °F 44.2 °F 100% 30.29 in 10.0 mi NW 3.5 mph - 0.00 in   Light Drizzle
3:06 AM 46.4 °F 44.3 °F 46.4 °F 100% 30.29 in 10.0 mi WNW 4.6 mph - N/A   Clear
3:08 AM 46.4 °F 44.3 °F 46.4 °F 100% 30.29 in 10.0 mi WNW 4.6 mph - N/A   Light Drizzle
3:55 AM 54.7 °F - 54.7 °F 100% 30.29 in 10.0 mi WNW 6.9 mph - 0.00 in   Light Drizzle
4:55 AM 55.4 °F - 55.4 °F 100% 30.30 in 10.0 mi WNW 6.9 mph - 0.00 in   Light Drizzle
5:29 AM 55.4 °F - 55.4 °F 100% 30.31 in 10.0 mi WNW 6.9 mph - N/A   Clear
5:32 AM 55.4 °F - 55.4 °F 100% 30.31 in 10.0 mi WNW 6.9 mph - N/A   Light Drizzle
5:55 AM 54.9 °F - 54.9 °F 100% 30.31 in 10.0 mi WNW 8.1 mph - 0.00 in   Light Drizzle
6:12 AM 55.4 °F - 55.4 °F 100% 30.32 in 10.0 mi WNW 5.8 mph - N/A   Clear
6:20 AM 55.4 °F - 55.4 °F 100% 30.32 in 10.0 mi WNW 6.9 mph - N/A   Light Drizzle
6:55 AM 54.7 °F - 54.7 °F 100% 30.32 in 10.0 mi WNW 6.9 mph - 0.00 in   Light Drizzle
6:57 AM 55.4 °F - 55.4 °F 100% 30.32 in 10.0 mi WNW 6.9 mph - N/A   Clear
7:04 AM 55.4 °F - 55.4 °F 100% 30.32 in 10.0 mi WNW 6.9 mph - N/A   Light Drizzle
7:55 AM 57.4 °F - 57.4 °F 100% 30.32 in 10.0 mi WNW 8.1 mph - 0.00 in   Light Drizzle
8:55 AM 62.1 °F - 56.5 °F 82% 30.34 in 10.0 mi WNW 10.4 mph - 0.00 in   Light Drizzle
9:08 AM 62.6 °F - 57.2 °F 82% 30.34 in 10.0 mi WNW 10.4 mph - N/A   Clear
9:10 AM 62.6 °F - 57.2 °F 82% 30.34 in 10.0 mi WNW 10.4 mph - N/A   Light Drizzle
9:21 AM 64.4 °F - 57.2 °F 77% 30.35 in 10.0 mi WNW 9.2 mph - N/A   Clear
9:23 AM 64.4 °F - 57.2 °F 77% 30.35 in 10.0 mi West 9.2 mph - N/A   Light Drizzle
9:55 AM 65.5 °F - 58.6 °F 79% 30.35 in 10.0 mi WNW 11.5 mph - 0.00 in   Light Drizzle
10:55 AM 68.4 °F - 59.7 °F 74% 30.33 in 10.0 mi WNW 10.4 mph - 0.00 in   Light Drizzle
11:18 AM 69.8 °F - 60.8 °F 73% 30.32 in 10.0 mi West 11.5 mph - N/A   Partly Cloudy
11:36 AM 68.0 °F - 60.8 °F 78% 30.31 in 10.0 mi SW 10.4 mph - N/A   Mostly Cloudy
11:38 AM 68.0 °F - 60.8 °F 78% 30.31 in 10.0 mi SW 10.4 mph - N/A   Scattered Clouds
11:43 AM 69.8 °F - 60.8 °F 73% 30.31 in 10.0 mi WSW 13.8 mph - N/A   Mostly Cloudy
11:45 AM 68.0 °F - 60.8 °F 78% 30.31 in 10.0 mi SW 10.4 mph - N/A   Scattered Clouds
11:46 AM 68.0 °F - 60.8 °F 78% 30.31 in 10.0 mi WSW 10.4 mph - N/A   Mostly Cloudy
11:55 AM 68.7 °F - 62.2 °F 80% 30.30 in 10.0 mi WSW 12.7 mph 17.3 mph 0.00 in   Mostly Cloudy
11:56 AM 68.0 °F - 62.6 °F 83% 30.30 in 10.0 mi WSW 11.5 mph 17.3 mph N/A   Scattered Clouds
11:59 AM 68.0 °F - 62.6 °F 83% 30.30 in 10.0 mi WSW 12.7 mph 17.3 mph N/A   Light Drizzle
12:03 PM 68.0 °F - 60.8 °F 78% 30.30 in 10.0 mi WSW 13.8 mph - N/A   Scattered Clouds
12:04 PM 68.0 °F - 60.8 °F 78% 30.30 in 10.0 mi WSW 12.7 mph - N/A   Light Drizzle
12:11 PM 68.0 °F - 60.8 °F 78% 30.30 in 10.0 mi WSW 11.5 mph - N/A   Light Drizzle
12:18 PM 68.0 °F - 60.8 °F 78% 30.29 in 10.0 mi WSW 11.5 mph - N/A   Light Drizzle
12:55 PM 68.7 °F - 61.9 °F 79% 30.27 in 10.0 mi WSW 13.8 mph - 0.00 in   Light Drizzle
1:34 PM 68.0 °F - 62.6 °F 83% 30.26 in 10.0 mi SW 13.8 mph - N/A   Scattered Clouds
1:37 PM 68.0 °F - 62.6 °F 83% 30.26 in 10.0 mi WSW 13.8 mph - N/A   Light Drizzle
1:55 PM 68.7 °F - 61.9 °F 79% 30.26 in 10.0 mi SW 15.0 mph - 0.00 in   Light Drizzle
2:55 PM 66.9 °F - 61.3 °F 82% 30.25 in 10.0 mi WSW 11.5 mph - 0.00 in   Light Drizzle
3:32 PM 66.2 °F - 60.8 °F 83% 30.25 in 10.0 mi SW 9.2 mph - N/A   Scattered Clouds
3:42 PM 66.2 °F - 60.8 °F 83% 30.24 in 10.0 mi SW 6.9 mph - N/A   Light Drizzle
3:55 PM 66.0 °F - 61.5 °F 85% 30.24 in 10.0 mi WSW 8.1 mph - 0.00 in   Light Drizzle
4:25 PM 64.4 °F - 60.8 °F 88% 30.25 in 10.0 mi WSW 9.2 mph - N/A   Scattered Clouds
4:39 PM 64.4 °F - 60.8 °F 88% 30.25 in 10.0 mi WSW 5.8 mph - N/A   Light Drizzle
4:55 PM 63.9 °F - 60.3 °F 88% 30.25 in 10.0 mi WSW 5.8 mph - 0.00 in   Light Drizzle
5:08 PM 62.6 °F - 60.8 °F 94% 30.25 in 10.0 mi WSW 6.9 mph - N/A   Clear
5:27 PM 62.6 °F - 60.8 °F 94% 30.25 in 10.0 mi West 5.8 mph - N/A   Light Drizzle
5:36 PM 62.6 °F - 60.8 °F 94% 30.25 in 10.0 mi WSW 5.8 mph - N/A   Clear
5:44 PM 62.6 °F - 60.8 °F 94% 30.25 in 10.0 mi WSW 4.6 mph - N/A   Light Drizzle
5:49 PM 62.6 °F - 60.8 °F 94% 30.25 in 10.0 mi WSW 4.6 mph - N/A   Clear
5:55 PM 62.1 °F - 60.3 °F 94% 30.26 in 10.0 mi WSW 5.8 mph - 0.00 in   Clear
6:08 PM 62.6 °F - 60.8 °F 94% 30.26 in 10.0 mi WSW 4.6 mph - N/A   Light Drizzle
6:55 PM 61.5 °F - 60.3 °F 96% 30.27 in 10.0 mi West 3.5 mph - 0.00 in   Light Drizzle
7:14 PM 60.8 °F - 59.0 °F 94% 30.27 in 10.0 mi West 3.5 mph - N/A   Clear
7:17 PM 60.8 °F - 59.0 °F 94% 30.27 in 10.0 mi West 3.5 mph - N/A   Light Drizzle
7:42 PM 60.8 °F - 59.0 °F 94% 30.28 in 10.0 mi Calm Calm - N/A   Clear
7:51 PM 60.8 °F - 59.0 °F 94% 30.28 in 10.0 mi West 3.5 mph - N/A   Light Drizzle
7:55 PM 60.4 °F - 58.3 °F 93% 30.28 in 10.0 mi Calm Calm - 0.00 in   Light Drizzle
8:25 PM 59.0 °F - 57.2 °F 94% 30.29 in 10.0 mi Calm Calm - N/A   Clear
8:29 PM 59.0 °F - 57.2 °F 94% 30.29 in 10.0 mi Calm Calm - N/A   Light Drizzle
8:31 PM 59.0 °F - 57.2 °F 94% 30.29 in 10.0 mi Calm Calm - N/A   Clear
8:32 PM 59.0 °F - 57.2 °F 94% 30.29 in 10.0 mi Calm Calm - N/A   Light Drizzle
8:39 PM 59.0 °F - 57.2 °F 94% 30.29 in 10.0 mi Calm Calm - N/A   Clear
8:54 PM 59.0 °F - 57.2 °F 94% 30.29 in 10.0 mi Calm Calm - N/A   Light Drizzle
8:55 PM 59.0 °F - 57.6 °F 95% 30.29 in 10.0 mi Calm Calm - 0.00 in   Light Drizzle
9:55 PM 58.8 °F - 58.8 °F 100% 30.29 in 10.0 mi Calm Calm - 0.00 in   Light Drizzle
10:16 PM 59.0 °F - 59.0 °F 100% 30.30 in 10.0 mi North 3.5 mph - N/A   Scattered Clouds
10:19 PM 59.0 °F - 59.0 °F 100% 30.30 in 10.0 mi North 3.5 mph - N/A   Light Drizzle
10:29 PM 55.4 °F - 55.4 °F 100% 30.30 in 10.0 mi Calm Calm - N/A   Partly Cloudy
10:54 PM 55.4 °F - 55.4 °F 100% 30.29 in 10.0 mi Calm Calm - N/A   Light Drizzle
10:55 PM 56.1 °F - 55.9 °F 99% 30.29 in 10.0 mi Calm Calm - 0.00 in   Light Drizzle
11:44 PM 53.6 °F - 53.6 °F 100% 30.28 in 10.0 mi Calm Calm - N/A   Clear
11:55 PM 50.5 °F - 50.5 °F 100% 30.28 in 10.0 mi Calm Calm - 0.00 in   Clear